Regional Weather Roundup
Issued by NWS

Home | Current Version | Previous Version | Text Only | Print | Product List | Glossary Off
Versions: 1 2 3 4 5 6 7 8 9 10 11 12 13 14 15 16 17 18 19 20 21 22 23 24 25 26 27

000
ASUS45 KSLC 171110
RWRUT

UTAH REGIONAL WEATHER ROUNDUP
NATIONAL WEATHER SERVICE SALT LAKE CITY UT
500 AM MDT THU APR 17 2014

UTZ001>011-023>025-171200-

NORTHERN UTAH

CITY           SKY/WX    TMP DP  RH WIND       PRES   REMARKS
HILL AFB       CLEAR     39  14  35 E16       30.03S WCI  30
LOGAN          CLOUDY    32  26  78 NE3       30.04S
OGDEN          CLEAR     39  16  39 S9        30.02S WCI  33
PROVO AIRPORT  PTCLDY    36  25  64 CALM      30.06R
SALT LAKE CITY CLEAR     39  20  46 SE8       30.02S WCI  33
VERNAL         CLEAR     32  20  61 W6        30.05R WCI  26
WENDOVER       CLEAR     39  19  45 NE3       30.01S
HEBER CITY     CLEAR     23  18  80 S3        30.08S
WEST JORDAN    CLEAR     37  21  52 S7        30.04S WCI  32

$$

UTZ012>022-026-027-171200-

SOUTHERN UTAH

CITY           SKY/WX    TMP DP  RH WIND       PRES   REMARKS
BRYCE CANYON   PTCLDY    24  18  77 CALM      30.11S
CEDAR CITY     CLEAR     34  22  61 N5        30.02F WCI  30
MILFORD        CLEAR     32  17  54 SW5       30.03S WCI  27
MOAB/CYNLANDS  CLEAR     39  20  46 CALM      30.00R
PRICE          CLEAR     37  13  37 NE9       30.04R WCI  30
ST GEORGE      SUNNY     55  23  28 SE3       29.95R
KANAB            N/A     43  23  45 NW12      30.05S

$$

REGIONAL REPORTS     COLORADO/ARIZONA

CITY           SKY/WX    TMP DP  RH WIND       PRES   REMARKS
CRAIG, CO      MOCLDY    22  17  81 CALM      30.08R
GRAND JUNCTION CLEAR     37  21  52 E12       30.02R WCI  29
RIFLE          CLEAR     31  22  69 SE3       30.06R
MONTROSE       CLEAR     34  25  69 SE7       30.07R WCI  28
CORTEZ         CLEAR     26  20  77 NE6       30.06S WCI  19
PAGE, AZ       NOT AVBL
GRAND CANYON   CLEAR     26  15  63 CALM      30.07S
KINGMAN        CLEAR     60  15  17 SE15      29.90R
FLAGSTAFF      CLEAR     28  16  60 CALM      30.09S

$$

REGIONAL REPORTS    NEVADA/IDAHO/WYOMING

CITY           SKY/WX    TMP DP  RH WIND       PRES   REMARKS
LAS VEGAS, NV  PTCLDY    67  25  20 S9        29.80R
ELY            PTCLDY    30  22  72 S10       30.06R WCI  21
ELKO           CLEAR     34  25  69 CALM      30.03R
POCATELLO, ID  CLEAR     35  16  45 S6        30.01S WCI  30
BURLEY         CLEAR     37  21  52 S10       29.99F WCI  30
EVANSTON, WY   CLEAR     28  11  48 S8        30.07S WCI  20
ROCK SPRINGS   PTCLDY    30  10  43 CALM      30.06R

$$



USA.gov is the U.S. government's official web portal to all federal, state and local government web resources and services.